Starlink 6257

operational
NORAD ID: 57088 Int'l Des: 2023-088 Owner: SPXS Country: US Constellation: starlink
LEOCIRCULAR

Über Starlink 6257

Beschreibung wird geladen...

Live-Position

3D-Globus wird geladen...

Nächste Überflüge

Höhenverlauf

Altitude vs Time

uPlot chart will show altitude changes over time

Zweizeiliger Elementsatz

1 57088U 23088AS 26061.47535272 -.00000337 00000-0 -98694-5 0 9995
2 57088 43.0025 133.7365 0001309 273.7366 86.3327 15.02533403149435
Epoch: 2. März 2026 • Age: 29 hours

Aktueller Status

Höhe 558.3 km
Geschwindigkeit 7.59 km/s
Subsatellitenpunkt 13.98°N, 91.61°W
Startdatum 22. Juni 2023
Alter 2.6 years
Typ internet

Technische Details

Klassifizierung Payload
Masse 305.00 kg
Trockenmasse 290.00 kg
Gesamtmasse 305.00 kg
Länge 0.20 m
Durchmesser 2.80 m
Spannweite 9.00 m
Form Box + pan
Hersteller SPXS
Bus-Typ Starlink
Phasenstatus In Orbit
Besitzer/Staat SPXS/US

Große Konstellationen

Loading constellations...